KF4URA Weather Reports


Display with metric or nautical units.
time (UTC)temp
F
wind
direction
speed
MPH
gust
MPH
rain 1hr
in
rain 24hr
in
rain mn
in
humidity
%
barometer
mb
20240530044544 54 319 0.0 0.0 0.00 0.16 0.00 96 1020.3
20240530043555 54 319 0.0 0.0 0.00 0.16 0.00 95 1020.3
20240530041428 53 319 0.0 0.0 0.00 0.16 0.00 95 1020.0
20240530040414 53 319 0.0 0.0 0.00 0.16 0.00 94 1020.0
20240530034155 54 319 0.0 0.0 0.00 0.16 0.17 94 1019.9
20240530032123 54 319 0.0 0.0 0.00 0.16 0.17 93 1019.7
20240530031104 54 319 0.0 0.0 0.00 0.16 0.17 93 1019.5
20240530030055 54 319 0.0 0.0 0.00 0.16 0.17 93 1019.5
20240530025117 55 319 0.0 0.0 0.00 0.16 0.17 93 1019.3
20240530022923 55 319 0.0 0.0 0.00 0.16 0.17 93 1019.0
20240530014555 57 319 0.0 0.0 0.00 0.16 0.17 91 1018.6
20240530013534 57 319 0.0 0.0 0.00 0.16 0.17 91 1018.5
20240530012507 57 319 0.0 0.0 0.00 0.16 0.17 90 1018.4
20240530011507 58 319 0.0 0.0 0.00 0.16 0.17 89 1018.2
20240530010506 58 319 0.0 0.0 0.00 0.16 0.17 89 1018.3
20240530004320 60 319 0.0 0.0 0.00 0.16 0.17 86 1018.1
20240530003301 60 319 0.0 0.0 0.00 0.16 0.17 86 1018.2
20240530002306 61 319 0.0 0.0 0.00 0.16 0.17 85 1018.1
20240530000129 61 319 0.0 1.0 0.00 0.16 0.17 83 1018.1
20240529235152 61 319 0.0 0.0 0.00 0.16 0.17 83 1018.1
20240529234159 60 346 0.0 0.0 0.00 0.16 0.17 85 1018.1
20240529233138 60 346 0.0 0.0 0.00 0.16 0.17 87 1018.1
20240529231011 59 348 0.0 0.0 0.00 0.16 0.17 88 1017.9
20240529225943 58 347 0.0 0.0 0.00 0.16 0.17 89 1017.8
20240529224920 58 347 0.0 0.0 0.00 0.16 0.17 88 1017.8
20240529223852 58 347 0.0 0.0 0.00 0.16 0.17 85 1017.7
20240529221737 59 348 0.0 3.0 0.00 0.16 0.17 81 1018.2
20240529215608 61 69 1.0 6.0 0.00 0.16 0.17 75 1018.0
20240529214632 63 0 1.0 6.0 0.00 0.16 0.17 73 1018.0
20240529213607 65 281 2.0 6.0 0.00 0.16 0.17 76 1017.5
20240529212622 67 313 0.0 5.0 0.00 0.16 0.17 68 1017.1
20240529211647 68 319 0.0 4.0 0.00 0.16 0.17 68 1017.0
20240529210643 68 314 0.0 5.0 0.00 0.16 0.17 67 1016.9
20240529205628 68 61 1.0 5.0 0.00 0.16 0.17 68 1017.0
20240529204642 68 248 0.0 4.0 0.00 0.16 0.17 67 1016.9
20240529203627 68 298 1.0 4.0 0.00 0.16 0.17 69 1016.7
20240529202638 67 5 0.0 3.0 0.00 0.16 0.17 69 1016.8
20240529201611 66 316 0.0 3.0 0.00 0.16 0.17 69 1016.8
20240529195429 67 25 0.0 3.0 0.00 0.16 0.17 72 1016.9
20240529194428 67 293 1.0 5.0 0.00 0.16 0.17 71 1016.9
20240529193424 67 5 0.0 6.0 0.00 0.16 0.17 69 1016.9
20240529192404 67 320 0.0 6.0 0.00 0.16 0.17 70 1016.9
20240529191411 66 298 0.0 5.0 0.00 0.16 0.17 69 1016.8
20240529190352 66 279 0.0 5.0 0.00 0.16 0.17 70 1016.7
20240529185340 65 355 1.0 4.0 0.00 0.16 0.17 75 1016.7
20240529184310 63 0 1.0 6.0 0.00 0.16 0.17 76 1016.6
20240529183236 63 304 1.0 6.0 0.00 0.16 0.17 74 1016.4
20240529181129 63 355 0.0 0.0 0.00 0.16 0.17 76 1016.3
20240529180131 62 275 0.0 7.0 0.00 0.16 0.17 77 1016.3
20240529175151 61 319 1.0 5.0 0.00 0.16 0.17 80 1016.3
20240529174122 61 279 0.0 3.0 0.00 0.16 0.17 78 1016.4
20240529173113 62 36 0.0 2.0 0.00 0.16 0.16 81 1016.2
20240529172103 60 329 0.0 2.0 0.00 0.16 0.16 83 1016.4
20240529171046 60 339 0.0 5.0 0.00 0.16 0.16 79 1016.5
20240529170015 61 286 1.0 5.0 0.00 0.16 0.16 81 1016.4
20240529163922 61 98 0.0 0.0 0.00 0.16 0.16 86 1016.2
20240529162912 61 33 0.0 4.0 0.00 0.16 0.16 88 1016.1
20240529160854 59 284 0.0 1.0 0.00 0.16 0.16 90 1016.3
20240529155843 58 284 0.0 3.0 0.06 0.16 0.16 86 1016.5
20240529154850 60 290 1.0 3.0 0.00 0.13 0.13 83 1016.4
20240529153817 61 318 0.0 3.0 0.00 0.13 0.13 81 1016.2
20240529152743 61 281 0.0 0.0 0.00 0.13 0.13 82 1016.0
20240529151803 61 288 0.0 3.0 0.00 0.13 0.13 85 1016.0
20240529150814 60 288 0.0 3.0 0.00 0.13 0.13 85 1016.0
20240529145802 60 304 0.0 2.0 0.00 0.13 0.13 85 1015.9
20240529144814 60 290 0.0 1.0 0.00 0.13 0.13 86 1015.8
20240529143835 60 291 0.0 3.0 0.00 0.13 0.13 86 1015.7
20240529142841 59 301 0.0 3.0 0.00 0.13 0.13 87 1015.6
20240529141851 59 294 0.0 1.0 0.00 0.13 0.13 87 1015.6
20240529140857 59 289 0.0 1.0 0.00 0.13 0.13 89 1015.6
20240529135826 59 298 0.0 3.0 0.00 0.13 0.13 88 1015.6
20240529133714 58 300 0.0 4.0 0.00 0.13 0.13 93 1015.5
20240529132710 57 254 0.0 2.0 0.00 0.13 0.13 95 1015.5
20240529130619 56 254 0.0 2.0 0.00 0.13 0.13 95 1015.6
20240529125558 56 231 0.0 2.0 0.00 0.13 0.13 96 1015.5
20240529124538 56 231 0.0 1.0 0.00 0.13 0.13 96 1015.4
20240529123507 56 231 0.0 2.0 0.00 0.13 0.13 96 1015.3
20240529122446 56 226 0.0 0.0 0.00 0.13 0.13 96 1015.1
20240529121420 56 226 0.0 0.0 0.00 0.13 0.13 97 1015.0
20240529120429 55 226 0.0 0.0 0.00 0.13 0.13 96 1014.8
20240529115411 55 226 0.0 0.0 0.00 0.13 0.13 97 1014.5
20240529114436 55 226 0.0 0.0 0.00 0.13 0.13 96 1014.4
20240529112305 54 226 0.0 0.0 0.00 0.13 0.13 96 1014.0
20240529111252 53 226 0.0 0.0 0.00 0.13 0.13 96 1013.6
20240529110300 53 226 0.0 0.0 0.00 0.13 0.13 96 1013.3
20240529105321 52 226 0.0 0.0 0.00 0.13 0.13 96 1013.2
20240529104257 52 226 0.0 0.0 0.00 0.13 0.13 96 1013.2
20240529103308 53 226 0.0 0.0 0.00 0.13 0.13 95 1013.1
20240529102250 53 226 0.0 0.0 0.00 0.13 0.13 95 1013.0
20240529101305 53 226 0.0 0.0 0.00 0.13 0.13 95 1013.0
20240529100324 53 226 0.0 0.0 0.00 0.13 0.13 95 1012.9
20240529095316 53 226 0.0 0.0 0.00 0.13 0.13 95 1013.1
20240529094334 54 226 0.0 0.0 0.00 0.13 0.13 95 1013.0
20240529093308 54 226 0.0 0.0 0.00 0.13 0.13 95 1012.9
20240529092243 54 226 0.0 0.0 0.00 0.13 0.13 95 1012.9
20240529090055 54 226 0.0 0.0 0.00 0.13 0.13 96 1013.0
20240529085056 54 226 0.0 0.0 0.00 0.13 0.13 95 1013.1
20240529084106 54 226 0.0 0.0 0.00 0.13 0.13 95 1013.1
20240529083048 54 226 0.0 0.0 0.00 0.13 0.13 95 1013.0
20240529082055 54 226 0.0 0.0 0.00 0.13 0.13 95 1013.1
20240529081033 54 226 0.0 0.0 0.00 0.13 0.13 94 1013.0
20240529080029 54 226 0.0 0.0 0.00 0.13 0.13 94 1013.1
20240529075044 55 226 0.0 0.0 0.00 0.13 0.13 94 1013.1
20240529074053 55 226 0.0 0.0 0.00 0.13 0.13 94 1013.1
20240529072008 56 226 0.0 0.0 0.00 0.13 0.13 94 1013.1
20240529071019 56 226 0.0 0.0 0.00 0.13 0.13 94 1013.1
20240529070037 56 226 0.0 0.0 0.00 0.13 0.13 94 1013.1
20240529065036 56 226 0.0 2.0 0.00 0.13 0.13 93 1013.2
20240529064051 56 226 0.0 2.0 0.00 0.13 0.13 93 1013.0
20240529063105 56 213 0.0 0.0 0.05 0.13 0.13 92 1012.8
20240529062056 56 213 0.0 0.0 0.10 0.13 0.13 92 1012.6
20240529061025 57 214 0.0 1.0 0.31 0.09 0.10 91 1013.0
20240529054908 58 214 0.0 3.0 0.12 0.03 0.03 86 1014.0
20240529053851 59 221 0.0 3.0 0.00 0.01 0.01 82 1013.9
20240529052913 59 278 1.0 8.0 0.00 0.00 0.00 81 1013.6
20240529051927 58 276 3.0 8.0 0.00 0.00 0.00 84 1013.4
20240529050917 57 294 0.0 0.0 0.00 0.00 0.00 91 1012.8
20240529044735 57 294 0.0 0.0 0.00 0.00 0.00 89 1012.8